This is the latest recevied weather packets stored in our database for station/object K6CED. If no packets are shown the sender has not sent any weather packets the latest 10 day(s).
| Time | Temp. | Humidity | Pressure | Rain* | Wind** | Luminosity | Snow |
|---|---|---|---|---|---|---|---|
| 1778179562 | 25° C | 50% | 1017.7 hPa | 0 mm | - | 894 W/m² | - |
| 1778179259 | 25.56° C | 50% | 1017.9 hPa | 0 mm | - | 891 W/m² | - |
| 1778178955 | 25° C | 51% | 1017.9 hPa | 0 mm | - | 888 W/m² | - |
| 1778178652 | 24.44° C | 52% | 1017.9 hPa | 0 mm | - | 882 W/m² | - |
| 1778178348 | 25° C | 52% | 1017.9 hPa | 0 mm | - | 876 W/m² | - |
| 1778178044 | 24.44° C | 53% | 1017.9 hPa | 0 mm | - | 870 W/m² | - |
| 1778177742 | 25° C | 52% | 1018 hPa | 0 mm | - | 862 W/m² | - |
| 1778177438 | 23.89° C | 54% | 1018.2 hPa | 0 mm | - | 855 W/m² | - |
| 1778177134 | 23.89° C | 54% | 1018.1 hPa | 0 mm | - | 849 W/m² | - |
| 1778176831 | 23.89° C | 54% | 1018.1 hPa | 0 mm | - | 840 W/m² | - |
| 1778176527 | 23.89° C | 55% | 1018.5 hPa | 0 mm | - | 834 W/m² | - |
| 1778176225 | 23.89° C | 54% | 1018.7 hPa | 0 mm | - | 824 W/m² | - |
| 1778175922 | 23.33° C | 56% | 1018.5 hPa | 0 mm | - | 815 W/m² | - |
| 1778175620 | 22.78° C | 57% | 1018.5 hPa | 0 mm | - | 804 W/m² | - |
| 1778175316 | 22.78° C | 57% | 1018.4 hPa | 0 mm | - | 794 W/m² | - |
| 1778175014 | 22.78° C | 57% | 1018.2 hPa | 0 mm | - | 786 W/m² | - |
| 1778174710 | 23.33° C | 56% | 1018.3 hPa | 0 mm | - | 774 W/m² | - |
| 1778174406 | 22.78° C | 58% | 1018.5 hPa | 0 mm | - | 764 W/m² | - |
| 1778174102 | 21.67° C | 60% | 1018.4 hPa | 0 mm | - | 751 W/m² | - |
| 1778173800 | 21.67° C | 60% | 1018.7 hPa | 0 mm | - | 737 W/m² | - |
| 1778173496 | 22.22° C | 58% | 1018.5 hPa | 0 mm | - | 725 W/m² | - |
| 1778173193 | 21.67° C | 60% | 1018.5 hPa | 0 mm | - | 712 W/m² | - |
| 1778172889 | 21.11° C | 61% | 1018.4 hPa | 0 mm | - | 698 W/m² | - |
| 1778172585 | 20.56° C | 62% | 1018.6 hPa | 0 mm | - | 685 W/m² | - |
| 1778172282 | 20.56° C | 63% | 1018.4 hPa | 0 mm | - | 390 W/m² | - |
* Rain latest hour (hover to see other rain measurements)
** Current wind speed in m/s (hover to see current wind gust speed)